Regional Weather Roundup
Issued by NWS

Home | Current Version | Previous Version | Text Only | Print | Product List | Glossary On
Versions: 1 2 3 4 5 6 7 8 9 10 11 12 13 14 15 16 17 18 19 20 21 22 23 24 25 26 27 28 29 30 31 32 33 34 35 36 37 38 39 40 41 42 43 44 45 46 47 48 49 50
000
ASUS43 KMKX 220813
RWRWI

WISCONSIN REGIONAL WEATHER ROUNDUP
NATIONAL WEATHER SERVICE MILWAUKEE/SULLIVAN WI
300 AM CDT FRI MAY 22 2015

NOTE: "FAIR" INDICATES FEW OR NO CLOUDS BELOW 12,000 FEET WITH NO
SIGNIFICANT WEATHER AND/OR OBSTRUCTIONS TO VISIBILITY.

WIZ001-002-006>008-014>016-023>028-220900-
NORTHWEST WISCONSIN

CITY           SKY/WX    TMP DP  RH WIND       PRES   REMARKS
SUPERIOR ARPT  CLEAR     37  35  92 CALM      30.12S
ASHLAND        CLEAR     35  33  92 SW3       30.12R
HAYWARD        CLEAR     36  31  82 CALM      30.13R
SIREN          CLEAR     38  34  84 CALM      30.13R
CUMBERLAND     CLEAR     43  34  70 CALM      30.12R
RICE LAKE      CLEAR     42  38  84 CALM      30.13R
CHETEK         CLEAR     42  40  92 CALM      30.11R
LADYSMITH      CLEAR     39  38  94 CALM      30.13R
EAU CLAIRE     NOT AVBL
MENOMONIE      CLEAR     48  38  68 NW3       30.11R
NEW RICHMOND   CLEAR     46  36  67 NE5       30.12R
OSCEOLA        CLEAR     42  38  84 CALM      30.15R
$$

WIZ003>005-009-010-017-018-220900-
NORTH CENTRAL WISCONSIN

CITY           SKY/WX    TMP DP  RH WIND       PRES   REMARKS
MANITOWISH WTR CLEAR     32  32 100 CALM      30.11R
ARBOR VITAE    CLEAR     42  32  69 CALM      30.11R
WOODRUFF       CLEAR     42  32  69 CALM      30.11R
RHINELANDER    CLEAR     38  29  70 CALM      30.12R
EAGLE RIVER    CLEAR     36  26  69 CALM      30.11R
LAND O LAKES   CLEAR     30  28  94 CALM      30.12R
PHILLIPS       CLEAR     34  34  98 CALM      30.11R
TOMAHAWK       CLEAR     31  29  93 CALM      30.11R
MEDFORD        CLEAR     38  35  89 CALM      30.10R
MERRILL        CLEAR     33  32  97 CALM      30.11R
$$

WIZ029-030-035-036-043>047-220900-
CENTRAL WISCONSIN

CITY           SKY/WX    TMP DP  RH WIND       PRES   REMARKS
WAUSAU         CLEAR     39  36  89 E3        30.11R
MOSINEE        CLEAR     43  36  75 E3        30.11R
MARSHFIELD     CLEAR     44  34  67 CALM      30.11R
STEVENS POINT  CLEAR     36  33  88 CALM      30.11R
WAUPACA        CLEAR     40  36  86 N3        30.11R
WAUTOMA        NOT AVBL
WISC RAPIDS    CLEAR     39  36  89 CALM      30.12R
CAMP DOUGLAS   NOT AVBL
$$

WIZ011>013-019>022-031-037>040-048>050-220900-
NORTHEAST WISCONSIN

CITY           SKY/WX    TMP DP  RH WIND       PRES   REMARKS
ANTIGO         CLEAR     40  30  66 E5        30.11R
SHAWANO        CLEAR     41  37  87 CALM      30.12R
OCONTO         CLEAR     35  35 100 CALM      30.11R
STURGEON BAY   CLEAR     36  28  75 CALM      30.13R
GREEN BAY      CLEAR     39  34  82 W5        30.12R
MANITOWOC      NOT AVBL
APPLETON       CLEAR     41  30  65 N6        30.11R
CLINTONVILLE   CLEAR     37  36  93 CALM      30.12R
OSHKOSH        CLEAR     45  30  55 CALM      30.11R
$$

WIZ032>034-041-042-053>061-220900-
SOUTHWEST WISCONSIN

CITY           SKY/WX    TMP DP  RH WIND       PRES   REMARKS
LA CROSSE      CLEAR     49  42  77 E3        30.09R
SPARTA         CLEAR     37  36  96 CALM      30.10S
VIROQUA        CLEAR     51  37  57 CALM      30.09R
BOSCOBEL       CLEAR     42  38  85 CALM      30.10R
PRAIRIE DU CHI CLEAR     45  40  81 CALM      30.09R
PLATTEVILLE    CLEAR     51  38  61 CALM      30.08R
$$

WIZ056-057-062-063-064-067-068-220900-
SOUTH CENTRAL WISCONSIN

CITY           SKY/WX    TMP DP  RH WIND       PRES   REMARKS
REEDSBURG      CLEAR     46  39  78 CALM      30.09R
BARABOO/DELLS  CLEAR     47  37  68 CALM      30.09R
LONE ROCK      NOT AVBL
MINERAL POINT  CLEAR     54  34  47 N7        30.08R
MADISON        CLEAR     48  33  56 SE5       30.09R
MIDDLETON      CLEAR     50  35  55 CALM      30.09R
WATERTOWN      CLEAR     44  32  62 E5        30.07S
MONROE         CLEAR     50  41  71 NE7       30.08R
JANESVILLE     CLEAR     50  37  62 NE7       30.08R
$$

WIZ051-052-058>065-066-070>072-220900-
SOUTHEAST WISCONSIN

CITY           SKY/WX    TMP DP  RH WIND       PRES   REMARKS
MILWAUKEE      CLEAR     45  32  60 N5        30.09R
WAUKESHA       CLEAR     43  32  65 CALM      30.09S
MILWAUKEE/TIMM CLEAR     46  28  49 CALM      30.08F
RACINE         CLEAR     46  36  68 N7        30.10R
BURLINGTON     CLEAR     45  32  61 NE3       30.08R
KENOSHA        CLEAR     46  38  73 N6        30.08R
FOND DU LAC    CLEAR     39  31  72 W3        30.10R
SHEBOYGAN      CLEAR     37  33  85 CALM      30.10R
WEST BEND      CLEAR     41  34  75 CALM      30.08S
JUNEAU         CLEAR     46  28  50 E6        30.09S
$$

LSZ147-162-220900-
LAKE SUPERIOR

STATION/POSITION TIME  TEMP    WIND        PRES    WAVE
                       AIR SEA DIR/SP/G            HT/PER
                 (UTC) (F)     (DEG/KT/KT) (MB)    (FT/S)
W MID LAKE BUOY  0650   39 36   90/  4/  4   N/A     0
DEVILS ISLAND    0700   44      30/  3/  4   N/A
PORT WING        0740   40     160/  4/  5   N/A
SAXON HARBOR     0740   37     200/  2/  5   N/A
$$

LMZ867-665-643>646-220900-
LAKE MICHIGAN

STATION/POSITION TIME  TEMP    WIND        PRES    WAVE
                       AIR SEA DIR/SP/G            HT/PER
                 (UTC) (F)     (DEG/KT/KT) (MB)    (FT/S)
CHAMBERS ISLAND  0700   45     310/  7/  9   N/A
N MID LAKE BUOY  0650   40 36  290/  8/ 10   N/A     1/ 3
SISTER BAY       0702   43        CALM       N/A
KEWAUNEE LAKESHO 0700          320/  2/  5   N/A
SHEBOYGAN LAKESH 0700           10/  6/  7   N/A
PORT WASHINGTON  0600   50      20/  4/  7   N/A
ATWATER BUOY     0700   47 44  350/ 10/ 12   N/A
MILWAUKEE LAKESH 0700   49      20/ 10/ 12   N/A
S MID LAKE BUOY  0650   43 38   20/  8/ 10   N/A     1
KENOSHA   LAKESH 0700   49      10/ 13/ 17   N/A
$$

TC  - TEMPERATURE IN CELSIUS
VSB - VISIBILITY IN STATUTE MILES
WCI - WIND CHILL INDEX
HX  - HEAT INDEX




USA.gov is the U.S. government's official web portal to all federal, state and local government web resources and services.